TimeEEST,TemperatureF,Dew PointF,Humidity,Sea Level PressureIn,VisibilityMPH,Wind Direction,Wind SpeedMPH,Gust SpeedMPH,PrecipitationIn,Events,Conditions,WindDirDegrees,DateUTC
12:20 AM,64.4,53.6,68,29.95,-9999.0,Variable,1.2,-,N/A,,Clear,0,2012-10-03 21:20:00
12:50 AM,60.8,53.6,77,29.92,-9999.0,Calm,Calm,-,N/A,,Clear,0,2012-10-03 21:50:00
1:20 AM,62.6,51.8,68,29.95,-9999.0,West,3.5,-,N/A,,Clear,280,2012-10-03 22:20:00
1:50 AM,62.6,51.8,68,29.95,-9999.0,West,3.5,-,N/A,,Clear,260,2012-10-03 22:50:00
2:20 AM,60.8,50.0,68,29.92,-9999.0,Calm,Calm,-,N/A,,Clear,0,2012-10-03 23:20:00
2:50 AM,60.8,50.0,68,29.92,-9999.0,West,2.3,-,N/A,,Clear,260,2012-10-03 23:50:00
3:00 AM,61,50,58,29.83,12,West,2.3,,,,,260,2012-10-04 00:00:00
3:20 AM,59.0,50.0,72,29.92,-9999.0,WSW,2.3,-,N/A,,Clear,240,2012-10-04 00:20:00
3:50 AM,60.8,50.0,68,29.92,-9999.0,WSW,4.6,-,N/A,,Clear,250,2012-10-04 00:50:00
4:20 AM,60.8,50.0,68,29.92,-9999.0,West,1.2,-,N/A,,Clear,270,2012-10-04 01:20:00
4:50 AM,59.0,50.0,72,29.89,-9999.0,NNW,4.6,-,N/A,,Clear,330,2012-10-04 01:50:00
5:20 AM,57.2,50.0,77,29.92,-9999.0,Variable,2.3,-,N/A,,Clear,0,2012-10-04 02:20:00
5:50 AM,59.0,50.0,72,29.89,-9999.0,Calm,Calm,-,N/A,,Clear,0,2012-10-04 02:50:00
6:20 AM,59.0,48.2,67,29.89,-9999.0,Calm,Calm,-,N/A,,Clear,0,2012-10-04 03:20:00
6:50 AM,59.0,50.0,72,29.89,-9999.0,Variable,1.2,-,N/A,,Clear,0,2012-10-04 03:50:00
7:20 AM,60.8,50.0,68,29.89,-9999.0,WSW,3.5,-,N/A,,Clear,240,2012-10-04 04:20:00
7:50 AM,62.6,51.8,68,29.89,-9999.0,WSW,3.5,-,N/A,,Clear,240,2012-10-04 04:50:00
8:20 AM,64.4,50.0,59,29.89,-9999.0,Variable,1.2,-,N/A,,Clear,0,2012-10-04 05:20:00
8:50 AM,68.0,50.0,52,29.89,-9999.0,West,1.2,-,N/A,,Clear,260,2012-10-04 05:50:00
9:00 AM,68,49,40,29.82,6,West,1.2,,,,Clear,260,2012-10-04 06:00:00
9:20 AM,71.6,50.0,46,29.89,-9999.0,SW,1.2,-,N/A,,Clear,230,2012-10-04 06:20:00
9:50 AM,75.2,51.8,44,29.89,-9999.0,Variable,1.2,-,N/A,,Clear,0,2012-10-04 06:50:00
10:20 AM,75.2,50.0,41,29.89,6.2,East,3.5,-,N/A,,Mostly Cloudy,90,2012-10-04 07:20:00
10:50 AM,78.8,48.2,34,29.89,6.2,East,4.6,-,N/A,,Mostly Cloudy,100,2012-10-04 07:50:00
11:20 AM,80.6,50.0,34,29.86,6.2,ESE,3.5,-,N/A,,Mostly Cloudy,110,2012-10-04 08:20:00
11:50 AM,82.4,48.2,30,29.86,6.2,Variable,2.3,-,N/A,,Mostly Cloudy,0,2012-10-04 08:50:00
12:20 PM,84.2,46.4,27,29.86,6.2,East,3.5,-,N/A,,Mostly Cloudy,90,2012-10-04 09:20:00
12:50 PM,86.0,46.4,25,29.83,6.2,East,5.8,-,N/A,,Mostly Cloudy,90,2012-10-04 09:50:00
1:20 PM,87.8,41.0,19,29.83,6.2,South,13.8,-,N/A,,Mostly Cloudy,180,2012-10-04 10:20:00
1:50 PM,87.8,35.6,16,29.80,6.2,South,13.8,-,N/A,,Mostly Cloudy,190,2012-10-04 10:50:00
2:20 PM,86.0,41.0,20,29.80,6.2,South,12.7,-,N/A,,Mostly Cloudy,190,2012-10-04 11:20:00
2:50 PM,87.8,41.0,19,29.80,6.2,South,11.5,-,N/A,,Scattered Clouds,180,2012-10-04 11:50:00
3:00 PM,88,41,11,29.69,6,South,11.5,,,,Scattered Clouds,180,2012-10-04 12:00:00
3:20 PM,87.8,42.8,21,29.80,6.2,South,12.7,-,N/A,,Scattered Clouds,180,2012-10-04 12:20:00
3:50 PM,86.0,44.6,23,29.77,6.2,South,15.0,-,N/A,,Mostly Cloudy,180,2012-10-04 12:50:00
4:20 PM,86.0,46.4,25,29.77,6.2,South,13.8,-,N/A,,Mostly Cloudy,170,2012-10-04 13:20:00
4:50 PM,86.0,46.4,25,29.77,6.2,South,16.1,-,N/A,,Scattered Clouds,190,2012-10-04 13:50:00
5:20 PM,84.2,46.4,27,29.77,6.2,South,15.0,-,N/A,,Scattered Clouds,190,2012-10-04 14:20:00
5:50 PM,82.4,46.4,28,29.77,6.2,SSW,13.8,-,N/A,,Scattered Clouds,200,2012-10-04 14:50:00
6:20 PM,80.6,44.6,28,29.80,6.2,SSW,11.5,-,N/A,,Partly Cloudy,210,2012-10-04 15:20:00
6:50 PM,78.8,44.6,30,29.80,6.2,SW,15.0,-,N/A,,Partly Cloudy,220,2012-10-04 15:50:00
7:20 PM,77.0,42.8,29,29.80,6.2,SW,9.2,-,N/A,,Partly Cloudy,220,2012-10-04 16:20:00
7:50 PM,75.2,41.0,29,29.83,6.2,WSW,5.8,-,N/A,,Partly Cloudy,250,2012-10-04 16:50:00
8:20 PM,73.4,39.2,29,29.83,6.2,WSW,6.9,-,N/A,,Partly Cloudy,250,2012-10-04 17:20:00
8:50 PM,71.6,39.2,31,29.83,6.2,WSW,8.1,-,N/A,,Partly Cloudy,240,2012-10-04 17:50:00
9:00 PM,71,39,20,29.75,12,WSW,8.1,,,,Scattered Clouds,240,2012-10-04 18:00:00
9:20 PM,69.8,39.2,33,29.83,-9999.0,SW,5.8,-,N/A,,Clear,230,2012-10-04 18:20:00
9:50 PM,69.8,41.0,35,29.83,-9999.0,WSW,6.9,-,N/A,,Clear,240,2012-10-04 18:50:00
10:20 PM,68.0,41.0,37,29.86,-9999.0,WNW,5.8,-,N/A,,Clear,290,2012-10-04 19:20:00
10:50 PM,68.0,42.8,40,29.86,-9999.0,WNW,4.6,-,N/A,,Clear,300,2012-10-04 19:50:00
11:20 PM,66.2,42.8,43,29.86,-9999.0,North,4.6,-,N/A,,Clear,360,2012-10-04 20:20:00
11:50 PM,68.0,42.8,40,29.86,-9999.0,Variable,2.3,-,N/A,,Clear,0,2012-10-04 20:50:00